Bridgeport, West Virginia, United States (26330)
Lat: 39.29N, Lon: 80.26W
Wx Zone: WVZ031
Local Info
Past Weather Observations for Today

NOTE: This archive is for the closest National Weather Service station to Bridgeport. Information may differ from the station used for current weather conditions.

Click here for Long-term Archive

Time Weather Temperature Dewpoint Humidity Pressure Winds Precip Visibility
17:53
Clear
73°F / 23°C 55°F / 13°C 53% 30.09 in
(1019 mb)
NNW 6.9 mph
(NNW 11 kph)
- 10SM
16:53
Clear
75°F / 24°C 55°F / 13°C 50% 30.09 in
(1019 mb)
NNW 8.1 mph
(NNW 13 kph)
- 10SM
15:53
Partly Cloudy
77°F / 25°C 55°F / 13°C 47% 30.09 in
(1019 mb)
W 4.6 mph
(W 7 kph)
- 10SM
14:53
Partly Cloudy
73°F / 23°C 55°F / 13°C 53% 30.09 in
(1019 mb)
Variable 3.5 mph
(Variable 6 kph)
- 10SM
13:53
Partly Cloudy
75°F / 24°C 57°F / 14°C 54% 30.09 in
(1019 mb)
Variable 5.8 mph
(Variable 9 kph)
- 10SM
12:53
Partly Cloudy
73°F / 23°C 57°F / 14°C 57% 30.12 in
(1020 mb)
NNE 8.1 mph
(NNE 13 kph)
- 10SM
11:53
Partly Cloudy
73°F / 23°C 57°F / 14°C 57% 30.12 in
(1020 mb)
Variable 4.6 mph
(Variable 7 kph)
- 10SM
10:53
Partly Cloudy
72°F / 22°C 57°F / 14°C 61% 30.12 in
(1020 mb)
NNW 5.8 mph
(NNW 9 kph)
- 10SM
10:48
Partly Cloudy
70°F / 21°C 57°F / 14°C 64% 30.12 in
(1020 mb)
N 5.8 mph
(N 9 kph)
- 10SM
10:31
Mostly Cloudy
70°F / 21°C 57°F / 14°C 64% 30.12 in
(1020 mb)
NW 4.6 mph
(NW 7 kph)
- 10SM
10:00
Partly Cloudy
68°F / 20°C 57°F / 14°C 69% 30.12 in
(1020 mb)
NE 10.4 mph
(NE 17 kph)
- 10SM
09:53
Mostly Cloudy
66°F / 19°C 57°F / 14°C 73% 30.12 in
(1020 mb)
NE 8.1 mph
(NE 13 kph)
- 10SM
08:53
Mostly Cloudy
66°F / 19°C 59°F / 15°C 78% 30.12 in
(1020 mb)
NE 6.9 mph
(NE 11 kph)
- 10SM
08:48
Mostly Cloudy
64°F / 18°C 59°F / 15°C 83% 30.12 in
(1020 mb)
NE 6.9 mph
(NE 11 kph)
- 10SM
07:53
Overcast
63°F / 17°C 59°F / 15°C 88% 30.12 in
(1020 mb)
NE 4.6 mph
(NE 7 kph)
- 10SM
06:53
Overcast
63°F / 17°C 59°F / 15°C 88% 30.09 in
(1019 mb)
N 4.6 mph
(N 7 kph)
- 10SM
06:40
Overcast
63°F / 17°C 59°F / 15°C 88% 30.09 in
(1019 mb)
N 5.8 mph
(N 9 kph)
- 10SM
05:53
Overcast
64°F / 18°C 61°F / 16°C 88% 30.09 in
(1019 mb)
N 5.8 mph
(N 9 kph)
- 10SM
04:53
Overcast
Fog And Mist
64°F / 18°C 61°F / 16°C 88% 30.06 in
(1018 mb)
N 6.9 mph
(N 11 kph)
- 10SM
04:04
Overcast
Fog And Mist
64°F / 18°C 61°F / 16°C 88% 30.06 in
(1018 mb)
N 6.9 mph
(N 11 kph)
- 10SM
03:53
Overcast
Fog And Mist
64°F / 18°C 61°F / 16°C 88% 30.06 in
(1018 mb)
NNE 8.1 mph
(NNE 13 kph)
- 10SM
03:38
Overcast
Fog And Mist
64°F / 18°C 63°F / 17°C 94% 30.06 in
(1018 mb)
NNE 8.1 mph
(NNE 13 kph)
- 10SM
02:53
Mostly Cloudy
Fog And Mist
66°F / 19°C 64°F / 18°C 94% 30.06 in
(1018 mb)
NNE 6.9 mph
(NNE 11 kph)
- 7SM
02:50
Mostly Cloudy
Fog And Mist
66°F / 19°C 64°F / 18°C 94% 30.06 in
(1018 mb)
NNE 5.8 mph
(NNE 9 kph)
- 7SM
02:44
Partly Cloudy
Fog And Mist
66°F / 19°C 64°F / 18°C 94% 30.06 in
(1018 mb)
NNE 4.6 mph
(NNE 7 kph)
- 8SM
01:53
Overcast
Fog And Mist
70°F / 21°C 66°F / 19°C 88% 30.04 in
(1017 mb)
Calm - 7SM
01:32
Overcast
Fog And Mist
70°F / 21°C 66°F / 19°C 88% 30.06 in
(1018 mb)
Calm - 6SM
01:22
Overcast
Fog And Mist
70°F / 21°C 66°F / 19°C 88% 30.06 in
(1018 mb)
Calm - 6SM
01:02
Overcast
Fog And Mist
70°F / 21°C 66°F / 19°C 88% 30.06 in
(1018 mb)
Calm - 5SM
00:53
Overcast
Fog And Mist
68°F / 20°C 66°F / 19°C 94% 30.06 in
(1018 mb)
Calm - 5SM
00:09
Overcast
Fog And Mist
70°F / 21°C 66°F / 19°C 88% 30.06 in
(1018 mb)
Calm - 6SM
Time Weather Temperature Dewpoint Humidity Pressure Winds Precip Visibility


Weather for websites

WeatherForYou.com, LLC is not responsible for any damages or problems caused by this service. Current weather conditions are obtained from the closest station including government and personal stations which may have varying degrees of accuracy. Weather forecasts are derived from the NOAA NDFD. Like all things, this site belongs to Jesus Christ... He just trusts me to maintain it. If you have any questions or comments email webmaster@weatherforyou.com

Copyright © 2014, WeatherForYou.com LLC. All rights reserved.